Fairbanks, AK

5:21 PM AKST on January 16, 2018 (GMT -0900)
Fairbanks International

Weather History for PAFA - October, 2010

Change the Weather History Date:

Thursday, October 14, 2010

  Actual Average Record
Temperature  
Mean Temperature 22 °F 26 °F  
Max Temperature 31 °F 34 °F 64 °F (1969)
Min Temperature 12 °F 19 °F -7 °F (1965)
Degree Days  
Heating Degree Days 43 39  
Month to date heating degree days 430 470  
Since 1 July heating degree days 1229 1464  
Cooling Degree Days 0 0  
Month to date cooling degree days 0 0  
Year to date cooling degree days 66 61  
Moisture  
Dew Point 16 °F    
Average Humidity 74    
Maximum Humidity 88    
Minimum Humidity 56    
Precipitation  
Precipitation 0.00 in 0.03 in 0.30 in (1958)
Month to date precipitation 0.19 0.40  
Year to date precipitation 8.11 9.07  
Snow  
Snow 0.00 in 0.40 in 2.90 in (1945)
Month to date snowfall 3.2 3.9  
Since 1 July snowfall 3.2 5.7  
Since 1 September snowfall 3.2 5.7  
Snow Depth 1.00 in    
Sea Level Pressure  
Sea Level Pressure 29.87 in    
Wind  
Wind Speed 6 mph (North)    
Max Wind Speed 9 mph    
Max Gust Speed -    
Visibility 10 miles    
Events      
T = Trace of Precipitation, MM = Missing Value Source: NWS Daily Summary

Daily Weather History Graph

Daily Weather History Graph

Search for Another Location

Airport or City:

Trip Planner

Search our weather history database for the weather conditions in past years. The results will help you decide how hot, cold, wet, or windy it might be!

Date:

Astronomy

Oct. 14, 2010 Rise Set
Actual Time 8:41 AM AKDT 6:32 PM AKDT
Civil Twilight 7:51 AM AKDT 7:21 PM AKDT
Nautical Twilight 6:54 AM AKDT 8:18 PM AKDT
Astronomical Twilight 5:56 AM AKDT 9:15 PM AKDT
Moon 5:21 PM AKDT (10/14) 10:56 PM AKDT (10/14)
Length of Visible Light 11h 30m
Length of Day
9h 50m
Waxing Crescent, 49% of the Moon is Illuminated
Oct 14
Waxing Crescent
Oct 14
First Quarter
Oct 22
Full
Oct 30
Last Quarter
Nov 5
New

Hourly Weather History & Observations

Time (AKDT) Temp. Windchill Dew Point Humidity Pressure Visibility Wind Dir Wind Speed Gust Speed Precip Events Conditions
12:53 AM 25.0 °F 15.5 °F 21.0 °F 85% 29.92 in 10.0 mi North 9.2 mph - N/A   Overcast
1:53 AM 25.0 °F 16.3 °F 21.0 °F 85% 29.91 in 10.0 mi North 8.1 mph - N/A   Overcast
2:53 AM 24.8 °F 15.3 °F 19.4 °F 80% 29.87 in 10.0 mi North 9.2 mph - N/A   Overcast
3:53 AM 24.1 °F 18.2 °F 19.0 °F 81% 29.89 in 10.0 mi NNW 4.6 mph - N/A   Overcast
4:53 AM 24.1 °F 17.0 °F 18.0 °F 77% 29.89 in 10.0 mi North 5.8 mph - N/A   Overcast
5:53 AM 23.0 °F 14.7 °F 18.0 °F 81% 29.88 in 10.0 mi North 6.9 mph - N/A   Overcast
6:53 AM 23.0 °F 14.7 °F 17.1 °F 78% 29.87 in 10.0 mi North 6.9 mph - N/A   Overcast
7:53 AM 21.0 °F 12.4 °F 15.1 °F 78% 29.88 in 10.0 mi North 6.9 mph - N/A   Mostly Cloudy
8:53 AM 18.0 °F 9.8 °F 12.9 °F 81% 29.87 in 10.0 mi North 5.8 mph - N/A   Scattered Clouds
9:53 AM 19.9 °F 11.1 °F 12.9 °F 74% 29.88 in 10.0 mi North 6.9 mph - N/A   Partly Cloudy
10:53 AM 24.1 °F 18.2 °F 14.0 °F 65% 29.88 in 10.0 mi North 4.6 mph - N/A   Partly Cloudy
11:53 AM 25.0 °F 17.1 °F 15.1 °F 66% 29.88 in 10.0 mi North 6.9 mph - N/A   Partly Cloudy
12:53 PM 27.0 °F 21.6 °F 16.0 °F 63% 29.87 in 10.0 mi North 4.6 mph - N/A   Partly Cloudy
1:53 PM 28.9 °F 25.2 °F 16.0 °F 58% 29.86 in 10.0 mi NNE 3.5 mph - N/A   Partly Cloudy
2:53 PM 28.9 °F - 16.0 °F 58% 29.85 in 10.0 mi Calm Calm - N/A   Partly Cloudy
3:53 PM 30.0 °F - 16.0 °F 56% 29.84 in 10.0 mi Calm Calm - N/A   Partly Cloudy
4:53 PM 28.9 °F - 15.1 °F 56% 29.84 in 10.0 mi Calm Calm - N/A   Partly Cloudy
5:53 PM 28.0 °F - 15.1 °F 58% 29.84 in 10.0 mi Calm Calm - N/A   Partly Cloudy
6:53 PM 24.1 °F - 17.1 °F 75% 29.85 in 10.0 mi Calm Calm - N/A   Partly Cloudy
7:53 PM 21.0 °F - 15.1 °F 78% 29.86 in 10.0 mi Calm Calm - N/A   Partly Cloudy
8:53 PM 17.1 °F - 14.0 °F 88% 29.87 in 10.0 mi Calm Calm - N/A   Clear
9:53 PM 18.0 °F 12.7 °F 14.0 °F 84% 29.87 in 10.0 mi ENE 3.5 mph - N/A   Clear
10:53 PM 16.0 °F 10.4 °F 12.0 °F 84% 29.89 in 10.0 mi NE 3.5 mph - N/A   Clear
11:53 PM 15.1 °F - 10.9 °F 84% 29.90 in 10.0 mi Calm Calm - N/A   Clear